Location: Quedlinburg
(51.7921°N, 11.1414°E)
Time: 09:47:14
(UTC+02:00)

RS-44 - Pass Details

Date: 16 March 2026
Orbit: 1175 x 1510 km, 82.5° (Epoch: 17 April)

Event Time Altitude Azimuth Distance (km) Brightness Sun altitude
Rises 02:38:28 0° 348° (NNW) 4,374 ? -32.7°
Reaches altitude 10° 02:41:11 10° 349° (N) 3,441 ? -32.4°
Maximum altitude 02:49:30 89° 264° (W) 1,445 ? -31.5°
Enters shadow 02:51:45 56° 172° (S) 1,692 ? -31.3°
